QPF
0.00 0.00 0.00 0.00 0.00 0.00 0.00 0.00 0.01 0.00 0.00 0.00 0.00 0.00 0.00 0.00 0.00 0.02 0.04 0.09 0.06 0.04 0.06 0.06 0.03 0.04 0.02 0.00 0.00 0.00 0.00 0.00 0.00 0.00 0.00 0.01 0.04 0.03 0.05 0.03 0.00 0.00 0.00
0.00 0.00 0.00 0.00 0.00 0.01 0.00 0.00 0.00 0.00 0.00 0.00 0.00 0.00 0.00 0.00 0.00 0.01 0.19 0.22 0.07 0.07 0.10 0.09 0.05 0.02 0.01 0.00 0.00 0.00 0.00 0.00 0.00 0.00 0.00 0.00 0.02 0.05 0.01 0.02 0.01 0.00 0.00
0.00 0.00 0.00 0.00 0.01 0.00 0.00 0.00 0.00 0.01 0.01 0.01 0.00 0.00 0.00 0.00 0.00 0.01 0.29 0.25 0.11 0.09 0.11 0.12 0.11 0.06 0.01 0.02 0.03 0.04 0.03 0.03 0.01 0.01 0.00 0.00 0.02 0.08 0.05 0.07 0.02 0.01 0.00
0.00 0.00 0.00 0.01 0.00 0.00 0.00 0.00 0.00 0.00 0.02 0.01 0.00 0.00 0.00 0.00 0.01 0.05 0.33 0.19 0.09 0.08 0.10 0.04 0.02 0.02 0.01 0.02 0.04 0.04 0.02 0.01 0.00 0.00 0.00 0.00 0.00 0.03 0.00 0.01 0.02 0.01 0.00
0.00 0.00 0.00 0.01 0.00 0.00 0.00 0.00 0.00 0.01 0.03 0.04 0.02 0.00 0.00 0.00 0.01 0.14 0.16 0.01 0.01 0.03 0.02 0.01 0.06 0.06 0.03 0.08 0.08 0.02 0.02 0.00 0.00 0.00 0.01 0.00 0.00 0.06 0.03 0.03 0.01 0.00 0.00
0.00 0.00 0.00 0.00 0.00 0.00 0.00 0.00 0.01 0.00 0.03 0.04 0.07 0.02 0.00 0.00 0.00 0.00 0.00 0.00 0.02 0.02 0.00 0.00 0.01 0.04 0.02 0.03 0.11 0.04 0.03 0.00 0.00 0.00 0.01 0.02 0.02 0.07 0.03 0.01 0.03 0.02 0.01
0.00 0.00 0.00 0.00 0.00 0.00 0.00 0.00 0.01 0.01 0.03 0.02 0.07 0.02 0.00 0.00 0.00 0.00 0.00 0.03 0.12 0.15 0.02 0.00 0.00 0.00 0.00 0.00 0.03 0.03 0.02 0.00 0.00 0.00 0.00 0.00 0.01 0.03 0.01 0.02 0.05 0.01 0.01
0.00 0.00 0.00 0.00 0.00 0.00 0.00 0.00 0.01 0.03 0.04 0.04 0.06 0.01 0.00 0.00 0.00 0.00 0.01 0.07 0.16 0.15 0.06 0.00 0.00 0.00 0.00 0.00 0.00 0.00 0.00 0.00 0.00 0.00 0.00 0.00 0.01 0.02 0.00 0.01 0.02 0.01 0.00
0.00 0.00 0.00 0.00 0.00 0.00 0.00 0.00 0.00 0.01 0.03 0.05 0.04 0.03 0.01 0.00 0.00 0.00 0.02 0.07 0.06 0.07 0.02 0.00 0.00 0.00 0.00 0.00 0.01 0.01 0.00 0.00 0.00 0.00 0.00 0.00 0.01 0.01 0.01 0.02 0.02 0.01 0.01
0.01 0.00 0.00 0.00 0.00 0.00 0.00 0.00 0.00 0.00 0.00 0.00 0.00 0.01 0.03 0.02 0.00 0.00 0.00 0.01 0.01 0.01 0.01 0.01 0.00 0.00 0.00 0.00 0.00 0.00 0.00 0.00 0.00 0.00 0.00 0.01 0.04 0.00 0.01 0.01 0.00 0.00 0.01
0.04 0.02 0.01 0.00 0.00 0.00 0.00 0.00 0.00 0.00 0.00 0.01 0.03 0.03 0.02 0.01 0.00 0.00 0.00 0.00 0.00 0.00 0.00 0.00 0.00 0.00 0.00 0.00 0.00 0.01 0.00 0.00 0.00 0.00 0.00 0.02 0.02 0.00 0.00 0.00 0.01 0.03 0.00
0.03 0.03 0.01 0.01 0.00 0.00 0.00 0.00 0.00 0.00 0.00 0.00 0.00 0.00 0.00 0.00 0.00 0.00 0.00 0.00 0.00 0.00 0.00 0.00 0.00 0.00 0.00 0.00 0.01 0.03 0.02 0.00 0.00 0.00 0.00 0.06 0.03 0.00 0.00 0.00 0.00 0.00 0.01
0.02 0.03 0.01 0.00 0.00 0.00 0.00 0.00 0.00 0.00 0.00 0.00 0.00 0.00 0.00 0.00 0.00 0.00 0.00 0.00 0.00 0.00 0.00 0.00 0.00 0.00 0.00 0.00 0.00 0.00 0.00 0.00 0.00 0.00 0.00 0.01 0.03 0.01 0.01 0.00 0.01 0.00 0.02
0.02 0.01 0.00 0.00 0.00 0.00 0.00 0.00 0.00 0.00 0.02 0.00 0.00 0.00 0.00 0.00 0.00 0.00 0.00 0.00 0.00 0.00 0.00 0.00 0.00 0.00 0.00 0.00 0.00 0.00 0.00 0.00 0.00 0.00 0.00 0.00 0.02 0.05 0.01 0.04 0.03 0.04 0.01
0.02 0.01 0.01 0.00 0.00 0.00 0.00 0.00 0.00 0.01 0.00 0.00 0.00 0.00 0.00 0.00 0.00 0.00 0.00 0.00 0.00 0.00 0.00 0.00 0.00 0.00 0.00 0.00 0.00 0.00 0.00 0.00 0.00 0.00 0.00 0.00 0.00 0.01 0.03 0.03 0.04 0.11 0.13
0.03 0.04 0.01 0.00 0.00 0.00 0.00 0.00 0.00 0.00 0.00 0.00 0.00 0.00 0.00 0.00 0.00 0.00 0.00 0.00 0.00 0.00 0.00 0.00 0.00 0.00 0.00 0.00 0.00 0.00 0.00 0.00 0.00 0.00 0.00 0.00 0.00 0.00 0.00 0.02 0.05 0.17 0.21
0.02 0.03 0.02 0.00 0.00 0.01 0.00 0.00 0.01 0.00 0.00 0.00 0.00 0.00 0.00 0.00 0.00 0.00 0.00 0.00 0.00 0.00 0.00 0.00 0.00 0.00 0.00 0.00 0.00 0.00 0.00 0.00 0.00 0.00 0.00 0.00 0.00 0.00 0.00 0.01 0.03 0.10 0.18
0.01 0.02 0.02 0.01 0.01 0.03 0.02 0.02 0.02 0.02 0.03 0.01 0.00 0.00 0.00 0.00 0.00 0.00 0.00 0.00 0.00 0.00 0.00 0.00 0.00 0.00 0.00 0.00 0.00 0.00 0.00 0.00 0.00 0.00 0.00 0.00 0.00 0.00 0.00 0.00 0.00 0.02 0.03
0.01 0.01 0.02 0.02 0.02 0.04 0.03 0.01 0.02 0.03 0.03 0.02 0.00 0.00 0.00 0.00 0.00 0.00 0.00 0.00 0.00 0.00 0.00 0.00 0.00 0.00 0.00 0.00 0.00 0.00 0.00 0.00 0.00 0.00 0.00 0.00 0.00 0.00 0.00 0.00 0.00 0.00 0.00
0.01 0.02 0.04 0.03 0.04 0.04 0.04 0.02 0.02 0.03 0.02 0.01 0.00 0.00 0.00 0.00 0.00 0.00 0.00 0.00 0.00 0.00 0.00 0.00 0.00 0.00 0.00 0.00 0.00 0.00 0.00 0.00 0.00 0.00 0.00 0.00 0.00 0.00 0.00 0.00 0.00 0.00 0.00
0.00 0.01 0.03 0.03 0.05 0.04 0.04 0.04 0.02 0.01 0.01 0.00 0.00 0.00 0.00 0.00 0.00 0.00 0.00 0.00 0.00 0.00 0.00 0.00 0.00 0.00 0.00 0.00 0.00 0.00 0.00 0.00 0.00 0.00 0.00 0.00 0.00 0.00 0.00 0.00 0.00 0.00 0.00
0.00 0.00 0.01 0.02 0.03 0.04 0.06 0.04 0.04 0.02 0.02 0.01 0.00 0.00 0.00 0.00 0.00 0.00 0.00 0.00 0.00 0.00 0.00 0.00 0.00 0.00 0.00 0.00 0.00 0.00 0.00 0.00 0.00 0.00 0.00 0.00 0.00 0.00 0.00 0.00 0.00 0.00 0.00
0.00 0.00 0.00 0.01 0.02 0.02 0.05 0.04 0.02 0.02 0.02 0.01 0.00 0.00 0.00 0.00 0.00 0.00 0.00 0.00 0.00 0.00 0.00 0.00 0.00 0.00 0.00 0.00 0.00 0.00 0.00 0.00 0.00 0.00 0.00 0.00 0.00 0.00 0.00 0.00 0.00 0.00 0.00
0.00 0.00 0.00 0.00 0.01 0.02 0.02 0.03 0.02 0.02 0.02 0.00 0.00 0.00 0.00 0.00 0.00 0.00 0.00 0.00 0.00 0.00 0.00 0.00 0.00 0.00 0.00 0.00 0.00 0.00 0.00 0.00 0.00 0.00 0.00 0.00 0.00 0.00 0.00 0.00 0.00 0.00 0.00
0.00 0.00 0.00 0.00 0.00 0.02 0.02 0.02 0.01 0.01 0.01 0.00 0.00 0.00 0.00 0.00 0.00 0.00 0.00 0.00 0.00 0.00 0.00 0.00 0.00 0.00 0.00 0.00 0.00 0.00 0.00 0.00 0.00 0.00 0.00 0.00 0.00 0.00 0.00 0.00 0.00 0.00 0.00
0.00 0.00 0.00 0.00 0.00 0.01 0.02 0.01 0.00 0.01 0.00 0.00 0.00 0.00 0.00 0.00 0.00 0.00 0.00 0.00 0.00 0.00 0.00 0.00 0.00 0.00 0.00 0.00 0.00 0.00 0.00 0.00 0.00 0.00 0.00 0.00 0.00 0.00 0.00 0.00 0.00 0.00 0.00
MSLP
1012.98 1012.91 1013.26 1013.72 1014.04 1014.28 1014.70 1015.01 1015.33 1015.73 1016.00 1016.22 1016.59 1016.73 1016.96 1017.13 1017.41 1017.65 1017.96 1018.09 1018.17 1018.29 1018.53 1018.60 1018.70 1018.87 1019.11 1019.37 1019.40 1019.51 1019.61 1019.79 1019.99 1020.10 1020.14 1020.34 1020.34 1020.47 1020.65 1020.65 1020.80 1020.92 1020.97
1012.23 1012.73 1013.11 1013.57 1013.97 1014.33 1014.79 1015.18 1015.55 1015.86 1016.15 1016.36 1016.72 1016.98 1017.15 1017.39 1017.60 1017.94 1018.26 1018.45 1018.52 1018.76 1018.89 1019.11 1019.15 1019.34 1019.60 1019.80 1019.85 1019.93 1020.03 1020.21 1020.31 1020.51 1020.73 1020.94 1020.97 1020.97 1021.13 1021.19 1021.32 1021.42 1021.50
1012.11 1012.67 1013.12 1013.53 1013.94 1014.47 1014.96 1015.36 1015.73 1016.05 1016.25 1016.49 1016.83 1017.13 1017.37 1017.63 1017.91 1018.25 1018.58 1018.89 1019.05 1019.31 1019.52 1019.71 1019.84 1019.96 1020.16 1020.36 1020.44 1020.47 1020.61 1020.65 1020.77 1020.98 1021.17 1021.33 1021.51 1021.46 1021.66 1021.73 1021.78 1021.87 1021.92
1011.97 1012.59 1013.00 1013.50 1013.94 1014.56 1015.08 1015.56 1015.93 1016.21 1016.52 1016.79 1017.03 1017.32 1017.63 1017.93 1018.21 1018.64 1019.04 1019.33 1019.47 1019.91 1020.23 1020.33 1020.43 1020.50 1020.63 1020.75 1020.84 1020.85 1020.84 1020.89 1021.17 1021.36 1021.57 1021.74 1021.79 1021.84 1021.87 1022.09 1022.13 1022.30 1022.39
1012.16 1012.64 1013.15 1013.52 1014.00 1014.58 1015.24 1015.71 1016.06 1016.38 1016.82 1017.14 1017.36 1017.51 1017.89 1018.24 1018.64 1019.13 1019.45 1019.82 1020.12 1020.35 1020.78 1021.23 1021.03 1020.97 1021.13 1021.14 1021.08 1021.04 1021.20 1021.35 1021.64 1021.89 1022.07 1022.21 1022.16 1022.23 1022.34 1022.47 1022.62 1022.81 1022.86
1012.26 1012.81 1013.21 1013.70 1014.17 1014.61 1015.30 1015.84 1016.23 1016.61 1017.08 1017.41 1017.78 1017.92 1018.20 1018.60 1019.10 1019.48 1020.03 1020.33 1020.81 1020.98 1021.18 1021.77 1021.49 1021.65 1021.54 1021.65 1021.52 1021.41 1021.67 1021.95 1022.22 1022.46 1022.58 1022.64 1022.67 1022.68 1022.69 1022.92 1023.14 1023.24 1023.17
1012.36 1012.92 1013.31 1013.79 1014.31 1014.71 1015.29 1015.88 1016.41 1016.88 1017.31 1017.70 1018.06 1018.34 1018.60 1018.95 1019.42 1019.93 1020.40 1020.77 1021.13 1021.22 1021.51 1021.91 1022.17 1022.35 1022.16 1022.19 1022.38 1022.36 1022.37 1022.60 1022.80 1023.05 1023.19 1023.11 1023.02 1022.90 1023.15 1023.48 1023.49 1023.61 1023.69
1012.31 1012.89 1013.49 1013.92 1014.44 1014.91 1015.35 1015.89 1016.57 1017.16 1017.61 1018.05 1018.37 1018.69 1019.03 1019.34 1019.72 1020.23 1020.74 1021.17 1021.44 1021.59 1021.95 1022.35 1022.46 1022.79 1022.90 1022.66 1023.07 1023.28 1023.20 1023.36 1023.53 1023.61 1023.66 1023.57 1023.47 1023.37 1023.54 1023.77 1023.92 1024.01 1024.16
1012.41 1013.04 1013.69 1014.21 1014.68 1015.11 1015.57 1016.11 1016.75 1017.46 1017.98 1018.45 1018.74 1019.05 1019.54 1019.81 1020.21 1020.71 1021.15 1021.53 1021.89 1022.18 1022.54 1022.89 1023.06 1023.28 1023.67 1023.59 1023.77 1023.93 1023.95 1024.17 1024.16 1024.23 1023.97 1023.99 1023.85 1023.90 1024.04 1024.17 1024.29 1024.37 1024.56
1012.93 1013.37 1013.91 1014.48 1014.94 1015.46 1015.94 1016.46 1017.10 1017.69 1018.38 1018.87 1019.47 1019.66 1020.19 1020.46 1020.72 1021.17 1021.65 1022.01 1022.39 1022.83 1023.23 1023.54 1023.70 1023.96 1024.30 1024.39 1024.48 1024.65 1024.82 1025.04 1025.10 1024.92 1024.74 1024.50 1024.25 1024.32 1024.42 1024.51 1024.66 1024.75 1024.90
1013.15 1013.74 1014.17 1014.64 1015.25 1015.81 1016.37 1017.06 1017.63 1018.23 1018.78 1019.42 1019.98 1020.26 1020.63 1021.16 1021.52 1021.81 1022.27 1022.59 1023.03 1023.47 1023.89 1024.13 1024.32 1024.74 1024.89 1025.07 1025.53 1025.47 1025.76 1026.36 1026.14 1025.84 1025.40 1024.87 1024.73 1024.75 1024.82 1024.93 1025.07 1025.20 1025.27
1012.99 1013.75 1014.37 1014.79 1015.52 1016.14 1016.92 1017.53 1018.17 1018.80 1019.19 1019.67 1020.17 1020.71 1021.28 1021.75 1022.17 1022.44 1022.97 1023.29 1023.74 1024.21 1024.54 1024.80 1025.05 1025.38 1025.61 1026.10 1026.29 1026.29 1026.81 1027.08 1027.00 1026.71 1026.18 1025.46 1025.09 1025.18 1025.26 1025.34 1025.46 1025.62 1025.70
1012.73 1013.56 1014.23 1014.98 1015.65 1016.41 1017.14 1017.86 1018.36 1019.01 1019.62 1020.19 1020.70 1021.07 1021.64 1022.17 1022.56 1022.97 1023.61 1024.20 1024.64 1025.05 1025.38 1025.71 1026.06 1026.45 1026.73 1027.07 1027.32 1027.50 1027.56 1027.84 1027.89 1027.73 1027.17 1026.25 1025.68 1025.60 1025.62 1025.70 1025.87 1025.94 1026.04
1012.83 1013.48 1014.32 1015.01 1015.68 1016.54 1017.29 1017.98 1018.73 1019.32 1019.81 1020.63 1021.27 1021.51 1021.86 1022.40 1022.90 1023.39 1023.88 1024.53 1025.06 1025.49 1026.00 1026.50 1027.07 1027.48 1027.53 1027.88 1028.17 1028.51 1028.52 1028.67 1028.66 1028.66 1028.21 1027.30 1026.71 1026.15 1026.05 1025.95 1026.15 1026.20 1026.32
1012.98 1013.61 1014.41 1015.11 1015.82 1016.71 1017.49 1018.34 1019.10 1019.71 1020.27 1020.84 1021.40 1021.82 1022.02 1022.46 1023.16 1023.69 1024.26 1024.88 1025.61 1025.97 1026.57 1027.17 1027.66 1028.06 1028.32 1028.59 1028.80 1028.81 1029.31 1029.46 1029.50 1029.43 1029.33 1028.59 1027.91 1027.34 1026.59 1026.32 1026.43 1026.47 1026.53
1013.12 1013.78 1014.57 1015.22 1015.93 1016.74 1017.65 1018.27 1019.25 1019.96 1020.69 1021.22 1021.68 1022.01 1022.33 1022.78 1023.20 1023.74 1024.53 1025.33 1026.00 1026.39 1027.06 1027.53 1028.06 1028.46 1029.02 1029.28 1029.51 1029.90 1029.99 1030.13 1030.02 1030.06 1030.17 1029.96 1029.43 1028.68 1027.86 1027.39 1026.91 1026.95 1026.89
1013.38 1013.90 1014.77 1015.35 1016.08 1016.93 1018.10 1018.73 1019.50 1020.37 1020.88 1021.50 1021.97 1022.30 1022.78 1023.17 1023.44 1023.93 1024.66 1025.58 1026.36 1026.85 1027.31 1027.88 1028.54 1029.01 1029.51 1030.11 1030.39 1030.63 1030.66 1030.85 1030.87 1031.05 1030.92 1030.84 1030.66 1030.20 1029.53 1028.80 1027.99 1027.66 1026.83
1013.57 1014.10 1015.02 1015.55 1016.47 1017.38 1018.47 1019.19 1020.03 1021.01 1021.67 1021.87 1022.22 1022.62 1023.09 1023.72 1023.98 1024.34 1024.83 1025.69 1026.42 1027.01 1027.52 1028.23 1028.88 1029.55 1030.22 1030.70 1031.13 1031.42 1031.49 1031.49 1031.63 1031.54 1031.48 1031.30 1031.28 1031.28 1030.92 1030.27 1029.72 1029.15 1028.41
1013.99 1014.61 1015.35 1016.02 1016.84 1017.75 1018.96 1019.82 1020.72 1021.67 1022.33 1022.73 1022.84 1023.03 1023.60 1024.18 1024.53 1025.05 1025.33 1026.08 1026.40 1027.04 1027.78 1028.32 1029.25 1029.53 1030.44 1031.20 1031.61 1032.08 1032.37 1032.59 1032.66 1032.38 1032.09 1032.02 1032.00 1031.92 1031.75 1031.52 1031.13 1030.56 1030.19
1014.34 1015.09 1015.70 1016.53 1017.68 1018.13 1019.47 1020.38 1021.31 1022.33 1023.04 1023.39 1023.70 1023.81 1024.12 1024.54 1025.16 1025.70 1026.30 1026.46 1026.77 1027.45 1028.23 1028.76 1029.33 1030.31 1030.64 1031.21 1032.01 1032.73 1033.20 1033.57 1033.52 1033.47 1033.31 1033.02 1032.94 1032.88 1032.71 1032.42 1032.20 1032.06 1031.84
1014.74 1015.55 1015.86 1016.79 1017.95 1018.47 1019.41 1020.45 1021.62 1022.36 1023.27 1023.76 1024.10 1024.22 1024.23 1024.92 1025.57 1026.11 1026.74 1027.32 1027.42 1027.45 1028.55 1028.98 1029.81 1030.76 1031.54 1032.00 1032.02 1033.34 1033.78 1033.81 1034.04 1034.38 1034.23 1034.07 1033.89 1033.76 1033.53 1033.42 1033.33 1033.12 1032.96
1014.88 1015.63 1016.53 1016.97 1017.76 1019.15 1020.46 1020.66 1021.49 1022.41 1023.28 1023.81 1024.13 1024.55 1024.55 1025.23 1025.73 1026.45 1027.10 1027.85 1028.20 1028.03 1028.77 1029.36 1029.58 1030.94 1031.97 1032.44 1032.67 1033.40 1034.39 1034.81 1034.93 1035.12 1035.09 1034.89 1034.97 1034.69 1034.50 1034.43 1034.28 1034.15 1034.00
1015.07 1015.74 1016.38 1017.32 1018.38 1019.00 1020.96 1020.79 1022.30 1023.34 1023.69 1024.24 1024.52 1025.02 1025.31 1025.23 1025.93 1026.75 1027.54 1027.81 1028.65 1028.73 1028.86 1029.46 1029.98 1030.32 1031.76 1032.78 1032.54 1033.01 1034.16 1034.93 1035.67 1036.04 1036.02 1035.93 1035.77 1035.63 1035.44 1035.24 1035.14 1035.02 1034.84
1015.34 1016.05 1016.72 1017.35 1018.31 1019.34 1020.78 1020.58 1021.25 1022.61 1023.65 1024.51 1024.70 1025.73 1025.66 1026.03 1026.36 1027.18 1027.64 1028.32 1028.81 1029.46 1029.67 1029.82 1029.98 1030.52 1030.88 1032.18 1032.88 1032.89 1032.87 1033.22 1034.83 1036.33 1036.48 1036.37 1036.07 1036.13 1036.15 1035.94 1035.88 1035.85 1035.73
1015.59 1016.41 1017.10 1017.70 1018.70 1019.30 1020.48 1020.35 1020.94 1022.25 1023.52 1024.04 1025.21 1025.95 1025.91 1026.73 1026.51 1027.65 1027.97 1028.60 1029.52 1029.68 1029.85 1030.38 1030.58 1030.88 1031.10 1031.84 1032.25 1032.90 1033.06 1033.34 1033.70 1034.64 1036.28 1036.76 1036.69 1036.88 1036.79 1036.53 1036.51 1036.45 1036.33
1016.33 1017.05 1017.63 1018.28 1018.87 1019.27 1019.64 1020.58 1020.51 1022.21 1022.61 1024.20 1025.29 1026.39 1026.46 1026.63 1027.33 1028.12 1027.87 1028.99 1029.75 1029.99 1030.07 1030.75 1031.11 1031.18 1031.47 1031.83 1032.12 1032.26 1032.68 1033.04 1033.48 1034.15 1035.43 1036.55 1036.93 1037.43 1037.40 1037.10 1037.10 1037.12 1036.98
Thickness
5717 5720 5717 5715 5714 5715 5714 5714 5714 5713 5713 5714 5712 5713 5713 5714 5713 5713 5712 5713 5714 5715 5714 5715 5716 5716 5717 5716 5718 5719 5720 5720 5720 5720 5721 5720 5721 5720 5720 5721 5720 5720 5721
5723 5719 5717 5714 5712 5712 5710 5710 5709 5709 5710 5711 5710 5709 5710 5710 5711 5710 5708 5708 5710 5710 5710 5710 5711 5711 5711 5712 5713 5715 5716 5716 5718 5717 5716 5715 5715 5716 5716 5717 5716 5717 5717
5721 5717 5714 5713 5711 5709 5707 5706 5706 5706 5707 5707 5706 5707 5707 5707 5706 5705 5704 5703 5704 5704 5704 5703 5703 5705 5706 5706 5708 5709 5710 5713 5713 5712 5712 5711 5711 5711 5711 5713 5714 5714 5714
5718 5715 5713 5711 5709 5706 5704 5702 5702 5703 5703 5702 5703 5703 5703 5703 5702 5700 5698 5698 5699 5696 5695 5696 5697 5698 5700 5701 5703 5706 5708 5708 5708 5708 5708 5708 5707 5708 5709 5709 5710 5709 5711
5714 5712 5709 5708 5707 5704 5700 5700 5700 5700 5698 5697 5698 5700 5698 5697 5696 5693 5693 5694 5692 5689 5686 5684 5688 5692 5694 5696 5699 5703 5704 5704 5704 5703 5703 5703 5705 5704 5705 5705 5705 5705 5707
5711 5708 5706 5705 5703 5702 5698 5697 5696 5696 5694 5693 5692 5694 5693 5692 5690 5689 5688 5688 5683 5678 5680 5676 5679 5684 5689 5691 5694 5697 5697 5696 5697 5698 5699 5699 5700 5700 5702 5701 5701 5702 5704
5707 5704 5703 5702 5701 5700 5697 5695 5693 5692 5691 5690 5689 5687 5687 5686 5685 5684 5682 5682 5678 5678 5675 5673 5673 5675 5680 5684 5685 5687 5688 5690 5692 5692 5693 5694 5696 5698 5697 5696 5697 5697 5698
5703 5701 5698 5698 5697 5696 5696 5694 5691 5689 5687 5685 5685 5684 5683 5682 5681 5679 5678 5676 5673 5673 5672 5670 5670 5671 5673 5678 5678 5678 5681 5681 5682 5685 5687 5689 5690 5692 5692 5692 5692 5693 5693
5698 5696 5694 5693 5693 5692 5692 5690 5687 5683 5682 5681 5680 5680 5678 5678 5676 5673 5672 5672 5669 5669 5667 5667 5667 5668 5666 5670 5671 5671 5673 5674 5677 5678 5681 5683 5684 5685 5686 5687 5686 5688 5688
5692 5691 5690 5688 5687 5686 5686 5684 5681 5679 5677 5676 5674 5676 5673 5672 5671 5669 5668 5667 5665 5662 5661 5660 5661 5660 5659 5662 5663 5664 5666 5666 5667 5670 5674 5676 5679 5680 5681 5682 5682 5683 5683
5686 5685 5684 5684 5683 5681 5680 5677 5674 5673 5672 5670 5669 5671 5669 5667 5664 5665 5663 5661 5658 5657 5656 5656 5657 5655 5654 5655 5653 5656 5657 5655 5658 5663 5667 5671 5673 5675 5677 5677 5677 5677 5677
5684 5681 5681 5680 5678 5676 5672 5669 5667 5666 5666 5664 5663 5664 5662 5661 5659 5659 5657 5655 5653 5651 5650 5650 5651 5651 5650 5647 5646 5647 5645 5647 5651 5654 5659 5664 5668 5669 5670 5670 5670 5671 5671
5683 5679 5679 5677 5673 5669 5666 5663 5662 5660 5659 5658 5656 5658 5657 5655 5654 5653 5650 5648 5646 5644 5644 5643 5644 5642 5641 5639 5639 5639 5639 5638 5641 5644 5649 5656 5661 5663 5664 5665 5664 5665 5665
5677 5676 5675 5672 5669 5664 5661 5660 5657 5654 5653 5650 5650 5652 5652 5650 5649 5646 5644 5642 5640 5638 5637 5635 5633 5632 5633 5632 5631 5631 5633 5632 5634 5636 5639 5647 5651 5656 5658 5660 5660 5660 5660
5669 5670 5669 5667 5664 5659 5657 5653 5650 5648 5648 5647 5645 5644 5646 5646 5644 5642 5639 5636 5633 5631 5629 5627 5625 5624 5624 5625 5624 5626 5624 5624 5625 5629 5631 5636 5641 5645 5653 5655 5656 5656 5656
5662 5663 5661 5660 5657 5654 5650 5648 5644 5642 5641 5640 5640 5639 5640 5640 5639 5638 5635 5630 5627 5626 5622 5621 5619 5618 5615 5615 5615 5614 5616 5616 5619 5621 5622 5625 5628 5634 5640 5644 5650 5650 5651
5653 5653 5653 5652 5648 5645 5640 5640 5637 5633 5634 5633 5632 5632 5632 5632 5632 5633 5630 5624 5622 5620 5617 5615 5612 5610 5609 5606 5607 5606 5607 5607 5610 5610 5613 5615 5618 5621 5626 5632 5638 5642 5650
5641 5643 5642 5644 5640 5636 5631 5629 5627 5624 5623 5625 5624 5624 5624 5623 5624 5625 5625 5620 5616 5614 5612 5608 5605 5602 5599 5598 5597 5597 5598 5598 5599 5601 5604 5608 5610 5612 5615 5619 5623 5627 5634
5628 5630 5630 5630 5628 5625 5621 5619 5615 5612 5610 5612 5615 5616 5614 5612 5613 5614 5615 5612 5610 5608 5604 5603 5598 5598 5593 5589 5588 5587 5587 5588 5590 5592 5596 5598 5600 5602 5605 5607 5610 5614 5617
5616 5617 5619 5617 5612 5613 5608 5607 5603 5599 5597 5599 5602 5604 5604 5605 5603 5603 5602 5604 5602 5599 5595 5593 5592 5586 5585 5583 5580 5577 5576 5576 5580 5582 5586 5588 5589 5591 5592 5595 5598 5598 5599
5602 5604 5608 5607 5603 5603 5601 5599 5595 5593 5590 5588 5591 5593 5596 5594 5593 5593 5592 5590 5591 5593 5587 5585 5582 5577 5573 5573 5575 5567 5565 5567 5568 5569 5572 5575 5577 5580 5583 5584 5585 5588 5589
5592 5594 5595 5598 5596 5591 5583 5586 5586 5585 5581 5580 5581 5582 5585 5584 5585 5584 5583 5580 5579 5581 5579 5577 5577 5569 5564 5565 5563 5559 5553 5553 5554 5555 5558 5560 5564 5567 5569 5570 5572 5574 5576
5581 5583 5587 5586 5583 5582 5569 5576 5571 5569 5567 5568 5571 5572 5572 5576 5575 5574 5573 5574 5570 5569 5572 5570 5568 5568 5559 5554 5558 5557 5545 5547 5538 5541 5543 5545 5549 5553 5555 5557 5558 5560 5562
5570 5571 5574 5576 5574 5571 5564 5566 5572 5569 5556 5558 5561 5557 5561 5562 5563 5561 5563 5562 5561 5557 5558 5560 5560 5559 5558 5550 5547 5548 5551 5551 5540 5528 5530 5533 5536 5538 5541 5543 5545 5545 5547
5558 5557 5560 5562 5562 5563 5559 5564 5566 5564 5556 5553 5548 5547 5550 5548 5553 5548 5550 5551 5547 5548 5547 5545 5548 5548 5549 5544 5543 5540 5539 5539 5539 5532 5522 5520 5523 5523 5526 5529 5531 5532 5533
5540 5540 5543 5547 5549 5553 5556 5555 5561 5551 5554 5544 5540 5536 5537 5538 5536 5534 5540 5537 5536 5536 5539 5533 5532 5534 5535 5534 5534 5534 5533 5534 5531 5528 5517 5512 5511 5510 5511 5514 5515 5516 5517